Time,TemperatureF,DewpointF,PressureIn,WindDirection,WindDirectionDegrees,WindSpeedMPH,WindSpeedGustMPH,Humidity,HourlyPrecipIn,Conditions,Clouds,dailyrainin,SoftwareType,DateUTC
2013-07-26 00:05:00,72.5,61.8,30.07,North,0,0.0,0.0,69,0.00,,,0.00,WUHU21623XXSP,2013-07-26 05:05:00,
2013-07-26 00:10:00,72.7,62.0,30.07,North,0,0.0,0.0,69,0.00,,,0.00,WUHU21623XXSP,2013-07-26 05:10:00,
2013-07-26 00:15:00,72.7,62.0,30.07,North,0,0.0,0.0,69,0.00,,,0.00,WUHU21623XXSP,2013-07-26 05:15:00,
2013-07-26 00:20:00,72.7,62.0,30.07,North,0,0.0,0.0,69,0.00,,,0.00,WUHU21623XXSP,2013-07-26 05:20:00,
2013-07-26 00:25:00,72.7,62.0,30.07,North,0,0.0,0.0,69,0.00,,,0.00,WUHU21623XXSP,2013-07-26 05:25:00,
2013-07-26 00:30:00,72.5,61.8,30.07,North,0,0.0,0.0,69,0.00,,,0.00,WUHU21623XXSP,2013-07-26 05:30:00,
2013-07-26 00:35:00,72.5,61.8,30.07,North,0,0.0,0.0,69,0.00,,,0.00,WUHU21623XXSP,2013-07-26 05:35:00,
2013-07-26 00:40:00,72.5,61.8,30.07,North,0,0.0,0.0,69,0.00,,,0.00,WUHU21623XXSP,2013-07-26 05:40:00,
2013-07-26 00:45:00,72.5,61.8,30.07,North,0,0.0,0.0,69,0.00,,,0.00,WUHU21623XXSP,2013-07-26 05:45:00,
2013-07-26 00:50:00,72.5,61.4,30.07,North,0,0.0,0.0,69,0.00,,,0.00,WUHU21623XXSP,2013-07-26 05:50:00,
2013-07-26 00:55:00,72.3,61.2,30.07,North,0,0.0,0.0,68,0.00,,,0.00,WUHU21623XXSP,2013-07-26 05:55:00,
2013-07-26 01:00:00,72.3,61.2,30.07,North,0,0.0,0.0,68,0.00,,,0.00,WUHU21623XXSP,2013-07-26 06:00:00,
2013-07-26 01:05:00,72.3,61.2,30.07,North,0,0.0,0.0,68,0.00,,,0.00,WUHU21623XXSP,2013-07-26 06:05:00,
2013-07-26 01:12:00,72.3,61.6,30.07,North,0,0.0,0.0,69,0.00,,,0.00,WUHU21623XXSP,2013-07-26 06:12:00,
2013-07-26 01:17:00,72.3,61.6,30.07,North,0,0.0,0.0,69,0.00,,,0.00,WUHU21623XXSP,2013-07-26 06:17:00,
2013-07-26 01:22:00,72.3,61.2,30.07,North,0,0.0,0.0,68,0.00,,,0.00,WUHU21623XXSP,2013-07-26 06:22:00,
2013-07-26 01:27:00,72.3,61.2,30.07,North,0,0.0,0.0,68,0.00,,,0.00,WUHU21623XXSP,2013-07-26 06:27:00,
2013-07-26 01:32:00,72.3,61.2,30.06,North,0,0.0,0.0,68,0.00,,,0.00,WUHU21623XXSP,2013-07-26 06:32:00,
2013-07-26 01:37:00,72.3,61.2,30.05,North,0,0.0,0.0,68,0.00,,,0.00,WUHU21623XXSP,2013-07-26 06:37:00,
2013-07-26 01:42:00,72.3,61.6,30.06,North,0,0.0,0.0,69,0.00,,,0.00,WUHU21623XXSP,2013-07-26 06:42:00,
2013-07-26 01:47:00,72.3,61.2,30.06,North,0,0.0,0.0,68,0.00,,,0.00,WUHU21623XXSP,2013-07-26 06:47:00,
2013-07-26 01:52:00,72.3,61.2,30.05,North,0,0.0,0.0,68,0.00,,,0.00,WUHU21623XXSP,2013-07-26 06:52:00,
2013-07-26 01:57:00,72.1,61.4,30.05,North,0,0.0,0.0,69,0.00,,,0.00,WUHU21623XXSP,2013-07-26 06:57:00,
2013-07-26 02:03:00,72.1,61.4,30.05,North,0,0.0,0.0,69,0.00,,,0.00,WUHU21623XXSP,2013-07-26 07:03:00,
2013-07-26 02:08:00,72.1,61.4,30.05,North,0,0.0,0.0,69,0.00,,,0.00,WUHU21623XXSP,2013-07-26 07:08:00,
2013-07-26 02:13:00,72.1,61.4,30.05,North,0,0.0,0.0,69,0.00,,,0.00,WUHU21623XXSP,2013-07-26 07:13:00,
2013-07-26 02:18:00,72.1,61.4,30.05,North,0,0.0,0.0,69,0.00,,,0.00,WUHU21623XXSP,2013-07-26 07:18:00,
2013-07-26 02:23:00,72.0,61.3,30.04,North,0,0.0,0.0,69,0.00,,,0.00,WUHU21623XXSP,2013-07-26 07:23:00,
2013-07-26 02:28:00,71.8,61.5,30.04,North,0,0.0,0.0,70,0.00,,,0.00,WUHU21623XXSP,2013-07-26 07:28:00,
2013-07-26 02:33:00,71.8,61.9,30.04,North,0,0.0,0.0,71,0.00,,,0.00,WUHU21623XXSP,2013-07-26 07:33:00,
2013-07-26 02:38:00,71.4,61.5,30.04,North,0,0.0,0.0,71,0.00,,,0.00,WUHU21623XXSP,2013-07-26 07:38:00,
2013-07-26 02:43:00,71.4,61.9,30.04,North,0,0.0,0.0,72,0.00,,,0.00,WUHU21623XXSP,2013-07-26 07:43:00,
2013-07-26 02:48:00,71.2,61.7,30.04,North,0,0.0,0.0,72,0.00,,,0.00,WUHU21623XXSP,2013-07-26 07:48:00,
2013-07-26 02:53:00,71.2,61.7,30.04,North,0,0.0,0.0,72,0.00,,,0.00,WUHU21623XXSP,2013-07-26 07:53:00,
2013-07-26 12:10:00,73.0,67.6,30.05,North,0,0.0,0.0,83,0.00,,,0.00,WUHU21623XXSP,2013-07-26 17:10:00,
2013-07-26 12:15:00,73.0,67.6,30.05,North,0,0.0,0.0,83,0.00,,,0.00,WUHU21623XXSP,2013-07-26 17:15:00,
2013-07-26 12:20:00,73.0,67.6,30.05,North,0,0.0,0.0,83,0.00,,,0.00,WUHU21623XXSP,2013-07-26 17:20:00,
2013-07-26 12:25:00,73.0,67.6,30.05,North,0,0.0,0.0,83,0.00,,,0.00,WUHU21623XXSP,2013-07-26 17:25:00,
2013-07-26 12:30:00,73.2,68.1,30.05,North,0,0.0,0.0,84,0.00,,,0.00,WUHU21623XXSP,2013-07-26 17:30:00,
2013-07-26 12:35:00,73.2,67.8,30.05,North,0,0.0,0.0,83,0.00,,,0.00,WUHU21623XXSP,2013-07-26 17:35:00,
2013-07-26 12:40:00,73.4,67.9,30.05,North,0,0.0,0.0,83,0.00,,,0.00,WUHU21623XXSP,2013-07-26 17:40:00,
2013-07-26 12:45:00,73.6,68.1,30.05,North,0,0.0,0.0,83,0.00,,,0.00,WUHU21623XXSP,2013-07-26 17:45:00,
2013-07-26 12:50:00,73.8,68.3,30.05,North,0,0.0,0.0,83,0.00,,,0.00,WUHU21623XXSP,2013-07-26 17:50:00,
2013-07-26 12:55:00,73.9,68.5,30.05,North,0,0.0,0.0,83,0.00,,,0.00,WUHU21623XXSP,2013-07-26 17:55:00,
2013-07-26 13:00:00,73.9,68.5,30.05,North,0,0.0,0.0,83,0.00,,,0.00,WUHU21623XXSP,2013-07-26 18:00:00,
2013-07-26 13:05:00,73.9,68.5,30.05,North,0,0.0,0.0,83,0.00,,,0.00,WUHU21623XXSP,2013-07-26 18:05:00,
2013-07-26 13:10:00,73.6,68.3,30.05,North,0,0.0,0.0,83,0.00,,,0.00,WUHU21623XXSP,2013-07-26 18:10:00,
2013-07-26 13:15:00,73.4,67.9,30.05,North,0,0.0,0.0,83,0.00,,,0.00,WUHU21623XXSP,2013-07-26 18:15:00,
2013-07-26 13:20:00,73.2,67.8,30.05,North,0,0.0,0.0,83,0.00,,,0.00,WUHU21623XXSP,2013-07-26 18:20:00,
2013-07-26 13:25:00,73.0,67.8,30.05,North,0,0.0,0.0,83,0.00,,,0.00,WUHU21623XXSP,2013-07-26 18:25:00,
2013-07-26 13:30:00,72.7,67.6,30.04,North,0,0.0,0.0,84,0.00,,,0.00,WUHU21623XXSP,2013-07-26 18:30:00,
2013-07-26 13:35:00,72.3,67.4,30.04,North,0,0.0,0.0,84,0.00,,,0.00,WUHU21623XXSP,2013-07-26 18:35:00,
2013-07-26 13:40:00,72.1,67.2,30.04,North,0,0.0,0.0,84,0.00,,,0.00,WUHU21623XXSP,2013-07-26 18:40:00,
2013-07-26 13:45:00,72.0,67.2,30.04,North,0,0.0,0.0,85,0.00,,,0.00,WUHU21623XXSP,2013-07-26 18:45:00,
2013-07-26 13:51:00,71.8,67.4,30.04,North,0,0.0,0.0,86,0.00,,,0.00,WUHU21623XXSP,2013-07-26 18:51:00,
2013-07-26 13:56:00,71.8,67.4,30.03,North,0,0.0,0.0,86,0.00,,,0.00,WUHU21623XXSP,2013-07-26 18:56:00,
2013-07-26 14:01:00,71.8,67.4,30.03,North,0,0.0,0.0,86,0.00,,,0.00,WUHU21623XXSP,2013-07-26 19:01:00,
2013-07-26 14:06:00,72.0,67.9,30.03,North,0,0.0,0.0,87,0.00,,,0.00,WUHU21623XXSP,2013-07-26 19:06:00,
2013-07-26 14:11:00,72.1,67.9,30.03,North,0,0.0,0.0,87,0.00,,,0.00,WUHU21623XXSP,2013-07-26 19:11:00,
2013-07-26 23:15:00,70.2,63.3,30.02,North,0,0.0,0.0,79,0.00,,,0.00,WUHU21623XXSP,2013-07-27 04:15:00,
2013-07-26 23:18:00,70.0,63.1,30.02,North,0,0.0,0.0,79,0.00,,,0.00,WUHU21623XXSP,2013-07-27 04:18:00,
2013-07-26 23:23:00,69.6,62.8,30.02,North,0,0.0,0.0,79,0.00,,,0.00,WUHU21623XXSP,2013-07-27 04:23:00,
2013-07-26 23:25:00,69.6,62.8,30.02,North,0,0.0,0.0,79,0.00,,,0.00,WUHU21623XXSP,2013-07-27 04:25:00,
2013-07-26 23:30:00,69.6,62.8,30.03,North,0,0.0,0.0,78,0.00,,,0.00,WUHU21623XXSP,2013-07-27 04:30:00,
2013-07-26 23:33:00,69.4,62.2,30.03,North,0,0.0,0.0,78,0.00,,,0.00,WUHU21623XXSP,2013-07-27 04:33:00,
2013-07-26 23:38:00,69.1,61.5,30.03,North,0,0.0,0.0,77,0.00,,,0.00,WUHU21623XXSP,2013-07-27 04:38:00,
2013-07-26 23:43:00,68.9,61.0,30.03,North,0,0.0,0.0,76,0.00,,,0.00,WUHU21623XXSP,2013-07-27 04:43:00,
2013-07-26 23:48:00,68.7,61.0,30.03,North,0,0.0,0.0,75,0.00,,,0.00,WUHU21623XXSP,2013-07-27 04:48:00,
2013-07-26 23:53:00,68.5,60.5,30.03,North,0,0.0,0.0,75,0.00,,,0.00,WUHU21623XXSP,2013-07-27 04:53:00,
2013-07-26 23:58:00,68.5,60.3,30.04,North,0,0.0,0.0,75,0.00,,,0.00,WUHU21623XXSP,2013-07-27 04:58:00,